Time,TemperatureF,DewpointF,PressureIn,WindDirection,WindDirectionDegrees,WindSpeedMPH,WindSpeedGustMPH,Humidity,HourlyPrecipIn,Conditions,Clouds,dailyrainin,SoftwareType,DateUTC
2013-11-20 00:01:00,49.8,27.6,29.90,South,180,4.2,-999.0,42,-99.99,,,0.00,Acu-Link.com,2013-11-20 06:01:00,
2013-11-20 00:16:00,50.2,27.4,29.89,SSE,157,7.3,-999.0,41,-99.99,,,0.00,Acu-Link.com,2013-11-20 06:16:00,
2013-11-20 00:32:00,50.9,27.4,29.89,ESE,112,8.3,-999.0,40,-99.99,,,0.00,Acu-Link.com,2013-11-20 06:32:00,
2013-11-20 00:47:00,51.1,27.6,29.89,South,180,8.9,-999.0,40,-99.99,,,0.00,Acu-Link.com,2013-11-20 06:47:00,
2013-11-20 01:02:00,51.3,27.2,29.89,South,180,14.0,-999.0,39,-99.99,,,0.00,Acu-Link.com,2013-11-20 07:02:00,
2013-11-20 01:17:00,51.1,27.0,29.88,SSE,157,6.8,-999.0,39,-99.99,,,0.00,Acu-Link.com,2013-11-20 07:17:00,
2013-11-20 01:33:00,51.1,27.0,29.87,SW,225,10.4,-999.0,39,-99.99,,,0.00,Acu-Link.com,2013-11-20 07:33:00,
2013-11-20 01:48:00,50.9,26.8,29.88,South,180,8.3,-999.0,39,-99.99,,,0.00,Acu-Link.com,2013-11-20 07:48:00,
2013-11-20 02:03:00,49.5,29.6,29.88,SW,225,8.3,-999.0,46,-99.99,,,0.00,Acu-Link.com,2013-11-20 08:03:00,
2013-11-20 02:19:00,48.7,31.4,29.89,South,180,6.3,-999.0,51,-99.99,,,0.00,Acu-Link.com,2013-11-20 08:19:00,
2013-11-20 02:34:00,47.7,32.3,29.89,SSW,202,5.8,-999.0,55,-99.99,,,0.00,Acu-Link.com,2013-11-20 08:34:00,
2013-11-20 02:49:00,47.3,32.8,29.89,SSW,202,6.8,-999.0,57,-99.99,,,0.00,Acu-Link.com,2013-11-20 08:49:00,
2013-11-20 03:04:00,47.1,32.7,29.89,SSE,157,3.7,-999.0,57,-99.99,,,0.00,Acu-Link.com,2013-11-20 09:04:00,
2013-11-20 03:19:00,46.8,32.8,29.88,SE,135,9.4,-999.0,58,-99.99,,,0.00,Acu-Link.com,2013-11-20 09:19:00,
2013-11-20 03:35:00,46.6,33.0,29.88,ESE,112,4.2,-999.0,59,-99.99,,,0.00,Acu-Link.com,2013-11-20 09:35:00,
2013-11-20 03:50:00,46.2,33.5,29.88,South,180,4.7,-999.0,61,-99.99,,,0.00,Acu-Link.com,2013-11-20 09:50:00,
2013-11-20 04:05:00,45.7,33.4,29.87,SSW,202,9.9,-999.0,62,-99.99,,,0.00,Acu-Link.com,2013-11-20 10:05:00,
2013-11-20 04:20:00,45.5,33.6,29.86,SSE,157,5.8,-999.0,63,-99.99,,,0.00,Acu-Link.com,2013-11-20 10:20:00,
2013-11-20 04:35:00,45.7,33.8,29.86,SSE,157,9.9,-999.0,63,-99.99,,,0.00,Acu-Link.com,2013-11-20 10:35:00,
2013-11-20 04:51:00,45.7,33.4,29.86,ESE,112,8.9,-999.0,62,-99.99,,,0.00,Acu-Link.com,2013-11-20 10:51:00,
2013-11-20 05:06:00,45.1,33.7,29.85,ESE,112,8.3,-999.0,64,-99.99,,,0.00,Acu-Link.com,2013-11-20 11:06:00,
2013-11-20 05:21:00,45.1,33.3,29.85,SSE,157,7.8,-999.0,63,-99.99,,,0.00,Acu-Link.com,2013-11-20 11:21:00,
2013-11-20 05:36:00,45.1,33.3,29.85,NE,45,8.9,-999.0,63,-99.99,,,0.00,Acu-Link.com,2013-11-20 11:36:00,
2013-11-20 05:52:00,44.4,33.4,29.84,South,180,10.9,-999.0,65,-99.99,,,0.00,Acu-Link.com,2013-11-20 11:52:00,
2013-11-20 06:07:00,43.9,33.7,29.84,South,180,7.8,-999.0,67,-99.99,,,0.00,Acu-Link.com,2013-11-20 12:07:00,
2013-11-20 06:22:00,43.9,33.7,29.84,South,180,9.9,-999.0,67,-99.99,,,0.00,Acu-Link.com,2013-11-20 12:22:00,
2013-11-20 06:37:00,43.5,34.0,29.85,South,180,9.9,-999.0,69,-99.99,,,0.00,Acu-Link.com,2013-11-20 12:37:00,
2013-11-20 06:52:00,42.6,33.9,29.85,SSE,157,7.3,-999.0,71,-99.99,,,0.00,Acu-Link.com,2013-11-20 12:52:00,
2013-11-20 07:08:00,42.4,33.7,29.86,South,180,8.3,-999.0,71,-99.99,,,0.00,Acu-Link.com,2013-11-20 13:08:00,
2013-11-20 07:23:00,42.4,33.7,29.85,SSE,157,6.3,-999.0,71,-99.99,,,0.00,Acu-Link.com,2013-11-20 13:23:00,
2013-11-20 07:38:00,42.4,33.7,29.86,SSE,157,8.9,-999.0,71,-99.99,,,0.00,Acu-Link.com,2013-11-20 13:38:00,
2013-11-20 07:54:00,42.4,33.3,29.86,SE,135,13.0,-999.0,70,-99.99,,,0.00,Acu-Link.com,2013-11-20 13:54:00,
2013-11-20 08:09:00,42.8,32.6,29.86,South,180,10.9,-999.0,67,-99.99,,,0.00,Acu-Link.com,2013-11-20 14:09:00,
2013-11-20 08:24:00,43.2,33.0,29.86,South,180,7.3,-999.0,67,-99.99,,,0.00,Acu-Link.com,2013-11-20 14:24:00,
2013-11-20 08:39:00,43.5,33.3,29.86,South,180,13.0,-999.0,67,-99.99,,,0.00,Acu-Link.com,2013-11-20 14:39:00,
2013-11-20 08:54:00,44.4,33.4,29.86,SSE,157,9.9,-999.0,65,-99.99,,,0.00,Acu-Link.com,2013-11-20 14:54:00,
2013-11-20 09:10:00,44.8,33.0,29.86,South,180,8.3,-999.0,63,-99.99,,,0.00,Acu-Link.com,2013-11-20 15:10:00,
2013-11-20 09:25:00,45.7,33.4,29.86,SSE,157,18.1,-999.0,62,-99.99,,,0.00,Acu-Link.com,2013-11-20 15:25:00,
2013-11-20 09:41:00,46.4,33.3,29.86,SSE,157,14.0,-999.0,60,-99.99,,,0.00,Acu-Link.com,2013-11-20 15:41:00,
2013-11-20 09:56:00,48.0,33.9,29.86,SE,135,9.4,-999.0,58,-99.99,,,0.00,Acu-Link.com,2013-11-20 15:56:00,
2013-11-20 10:11:00,46.2,33.9,29.87,South,180,9.9,-999.0,62,-99.99,,,0.00,Acu-Link.com,2013-11-20 16:11:00,
2013-11-20 10:26:00,48.0,34.8,29.87,SSE,157,15.0,-999.0,60,-99.99,,,0.00,Acu-Link.com,2013-11-20 16:26:00,
2013-11-20 10:41:00,47.7,34.1,29.86,SSE,157,15.5,-999.0,59,-99.99,,,0.00,Acu-Link.com,2013-11-20 16:41:00,
2013-11-20 10:57:00,47.1,33.9,29.86,SSE,157,9.4,-999.0,60,-99.99,,,0.00,Acu-Link.com,2013-11-20 16:57:00,
2013-11-20 11:12:00,49.3,35.2,29.85,SSE,157,10.4,-999.0,58,-99.99,,,0.00,Acu-Link.com,2013-11-20 17:12:00,
2013-11-20 11:27:00,49.8,33.8,29.84,SE,135,15.5,-999.0,54,-99.99,,,0.00,Acu-Link.com,2013-11-20 17:27:00,
2013-11-20 11:42:00,52.5,35.9,29.85,South,180,10.9,-999.0,53,-99.99,,,0.00,Acu-Link.com,2013-11-20 17:42:00,
2013-11-20 11:58:00,50.2,34.7,29.83,SE,135,11.9,-999.0,55,-99.99,,,0.00,Acu-Link.com,2013-11-20 17:58:00,
2013-11-20 12:13:00,52.2,35.6,29.83,SSE,157,15.5,-999.0,53,-99.99,,,0.00,Acu-Link.com,2013-11-20 18:13:00,
2013-11-20 12:28:00,52.7,36.1,29.82,South,180,13.5,-999.0,53,-99.99,,,0.00,Acu-Link.com,2013-11-20 18:28:00,
2013-11-20 12:43:00,52.2,35.6,29.81,South,180,11.4,-999.0,53,-99.99,,,0.00,Acu-Link.com,2013-11-20 18:43:00,
2013-11-20 12:58:00,55.8,36.4,29.81,SSE,157,7.8,-999.0,48,-99.99,,,0.00,Acu-Link.com,2013-11-20 18:58:00,
2013-11-20 13:14:00,54.5,36.2,29.80,South,180,16.6,-999.0,50,-99.99,,,0.00,Acu-Link.com,2013-11-20 19:14:00,
2013-11-20 13:29:00,55.9,36.0,29.80,ESE,112,7.3,-999.0,47,-99.99,,,0.00,Acu-Link.com,2013-11-20 19:29:00,
2013-11-20 13:44:00,54.7,35.4,29.79,SSW,202,10.4,-999.0,48,-99.99,,,0.00,Acu-Link.com,2013-11-20 19:44:00,
2013-11-20 13:59:00,55.6,35.7,29.78,SSE,157,13.5,-999.0,47,-99.99,,,0.00,Acu-Link.com,2013-11-20 19:59:00,
2013-11-20 14:15:00,55.6,35.7,29.78,South,180,8.3,-999.0,47,-99.99,,,0.00,Acu-Link.com,2013-11-20 20:15:00,
2013-11-20 14:30:00,55.6,36.2,29.78,SSE,157,6.8,-999.0,48,-99.99,,,0.00,Acu-Link.com,2013-11-20 20:30:00,
2013-11-20 14:45:00,54.9,36.6,29.78,South,180,7.3,-999.0,50,-99.99,,,0.00,Acu-Link.com,2013-11-20 20:45:00,
2013-11-20 15:00:00,55.0,36.7,29.78,ESE,112,7.3,-999.0,50,-99.99,,,0.00,Acu-Link.com,2013-11-20 21:00:00,
2013-11-20 15:15:00,54.1,37.8,29.77,ESE,112,6.3,-999.0,54,-99.99,,,0.00,Acu-Link.com,2013-11-20 21:15:00,
2013-11-20 15:31:00,53.6,37.8,29.78,SSE,157,10.4,-999.0,55,-99.99,,,0.00,Acu-Link.com,2013-11-20 21:31:00,
2013-11-20 15:46:00,52.7,38.3,29.78,SSE,157,6.8,-999.0,58,-99.99,,,0.00,Acu-Link.com,2013-11-20 21:46:00,
2013-11-20 16:01:00,52.3,38.4,29.79,South,180,7.8,-999.0,59,-99.99,,,0.00,Acu-Link.com,2013-11-20 22:01:00,
2013-11-20 16:16:00,50.9,38.4,29.80,SSE,157,5.8,-999.0,62,-99.99,,,0.00,Acu-Link.com,2013-11-20 22:16:00,
2013-11-20 16:31:00,49.6,37.9,29.81,SE,135,6.8,-999.0,64,-99.99,,,0.00,Acu-Link.com,2013-11-20 22:31:00,
2013-11-20 16:47:00,48.7,37.9,29.81,SSE,157,6.8,-999.0,66,-99.99,,,0.00,Acu-Link.com,2013-11-20 22:47:00,
2013-11-20 17:02:00,47.7,38.0,29.82,SE,135,6.8,-999.0,69,-99.99,,,0.00,Acu-Link.com,2013-11-20 23:02:00,
2013-11-20 17:17:00,46.6,37.7,29.83,SSE,157,6.3,-999.0,71,-99.99,,,0.00,Acu-Link.com,2013-11-20 23:17:00,
2013-11-20 17:32:00,45.7,37.2,29.83,SE,135,6.8,-999.0,72,-99.99,,,0.00,Acu-Link.com,2013-11-20 23:32:00,
2013-11-20 17:47:00,45.1,37.3,29.84,ESE,112,6.3,-999.0,74,-99.99,,,0.00,Acu-Link.com,2013-11-20 23:47:00,
2013-11-20 18:03:00,44.6,37.2,29.84,SSE,157,7.3,-999.0,75,-99.99,,,0.00,Acu-Link.com,2013-11-21 00:03:00,
2013-11-20 18:18:00,44.2,37.1,29.85,SE,135,4.2,-999.0,76,-99.99,,,0.00,Acu-Link.com,2013-11-21 00:18:00,
2013-11-20 18:33:00,43.3,36.9,29.85,SE,135,5.8,-999.0,78,-99.99,,,0.00,Acu-Link.com,2013-11-21 00:33:00,
2013-11-20 18:49:00,42.8,37.1,29.85,SSE,157,4.7,-999.0,80,-99.99,,,0.00,Acu-Link.com,2013-11-21 00:49:00,
2013-11-20 19:04:00,42.4,37.0,29.85,SE,135,3.7,-999.0,81,-99.99,,,0.00,Acu-Link.com,2013-11-21 01:04:00,
2013-11-20 19:19:00,42.1,37.0,29.86,SSE,157,6.3,-999.0,82,-99.99,,,0.00,Acu-Link.com,2013-11-21 01:19:00,
2013-11-20 19:35:00,41.7,36.6,29.86,SSE,157,5.3,-999.0,82,-99.99,,,0.00,Acu-Link.com,2013-11-21 01:35:00,
2013-11-20 19:50:00,41.5,36.4,29.87,SSE,157,6.8,-999.0,82,-99.99,,,0.00,Acu-Link.com,2013-11-21 01:50:00,
2013-11-20 20:05:00,41.4,36.6,29.87,SSE,157,6.8,-999.0,83,-99.99,,,0.00,Acu-Link.com,2013-11-21 02:05:00,
2013-11-20 20:20:00,41.2,36.7,29.87,SSW,202,4.7,-999.0,84,-99.99,,,0.00,Acu-Link.com,2013-11-21 02:20:00,
2013-11-20 20:35:00,40.6,36.5,29.88,ESE,112,3.7,-999.0,85,-99.99,,,0.00,Acu-Link.com,2013-11-21 02:35:00,
2013-11-20 20:51:00,39.9,36.1,29.89,SE,135,2.2,-999.0,86,-99.99,,,0.00,Acu-Link.com,2013-11-21 02:51:00,
2013-11-20 21:06:00,39.6,36.1,29.89,SE,135,2.7,-999.0,87,-99.99,,,0.00,Acu-Link.com,2013-11-21 03:06:00,
2013-11-20 21:21:00,39.2,36.0,29.89,SSE,157,2.2,-999.0,88,-99.99,,,0.00,Acu-Link.com,2013-11-21 03:21:00,
2013-11-20 21:36:00,39.2,36.0,29.90,SSE,157,4.2,-999.0,88,-99.99,,,0.00,Acu-Link.com,2013-11-21 03:36:00,
2013-11-20 21:51:00,39.2,36.2,29.90,SE,135,2.7,-999.0,89,-99.99,,,0.00,Acu-Link.com,2013-11-21 03:51:00,
2013-11-20 22:07:00,39.0,36.0,29.90,SSE,157,2.7,-999.0,89,-99.99,,,0.00,Acu-Link.com,2013-11-21 04:07:00,
2013-11-20 22:22:00,39.0,36.0,29.90,South,180,2.2,-999.0,89,-99.99,,,0.00,Acu-Link.com,2013-11-21 04:22:00,
2013-11-20 22:37:00,39.0,36.3,29.91,SSW,202,4.2,-999.0,90,-99.99,,,0.00,Acu-Link.com,2013-11-21 04:37:00,
2013-11-20 22:52:00,39.2,36.5,29.91,SSE,157,3.7,-999.0,90,-99.99,,,0.00,Acu-Link.com,2013-11-21 04:52:00,
2013-11-20 23:08:00,39.2,36.5,29.91,South,180,2.7,-999.0,90,-99.99,,,0.00,Acu-Link.com,2013-11-21 05:08:00,
2013-11-20 23:23:00,38.8,36.1,29.92,SSE,157,3.7,-999.0,90,-99.99,,,0.00,Acu-Link.com,2013-11-21 05:23:00,
2013-11-20 23:38:00,38.5,36.1,29.93,ESE,112,0.0,-999.0,91,-99.99,,,0.00,Acu-Link.com,2013-11-21 05:38:00,
2013-11-20 23:53:00,38.1,36.0,29.93,ESE,112,3.2,-999.0,92,-99.99,,,0.00,Acu-Link.com,2013-11-21 05:53:00,